Abilene, TX

9:01 AM CST on December 09, 2019 (GMT -0600)
Abilene Regional

Weather History for KABI - November, 2019

Change the Weather History Date:

Tuesday, November 19, 2019

  Actual Average Record
Temperature  
Mean Temperature 64 °F 53 °F  
Max Temperature 80 °F 65 °F 85 °F (1996)
Min Temperature 48 °F 41 °F 22 °F (1937)
Degree Days  
Heating Degree Days 1 12  
Month to date heating degree days 243 169  
Since 1 July heating degree days 436 273  
Cooling Degree Days 0 0  
Month to date cooling degree days 4 15  
Year to date cooling degree days 2907 2404  
Growing Degree Days 14 (Base 50)    
Moisture  
Dew Point 40 °F    
Average Humidity 42    
Maximum Humidity 66    
Minimum Humidity 18    
Precipitation  
Precipitation 0.00 in 0.04 in 1.65 in (1963)
Month to date precipitation 1.77 0.99  
Year to date precipitation 21.93 23.17  
Sea Level Pressure  
Sea Level Pressure 29.88 in    
Wind  
Wind Speed 10 mph (South)    
Max Wind Speed 20 mph    
Max Gust Speed 26 mph    
Visibility 10 miles    
Events      
T = Trace of Precipitation, MM = Missing Value Source: NWS Daily Summary

Daily Weather History Graph

Daily Weather History Graph

Search for Another Location

Airport or City:

Astronomy

Nov. 19, 2019 Rise Set
Actual Time 7:11 AM CST 5:36 PM CST
Civil Twilight 6:45 AM CST 6:02 PM CST
Nautical Twilight 6:15 AM CST 6:32 PM CST
Astronomical Twilight 5:46 AM CST 7:01 PM CST
Moon No Moon Rise 1:25 PM CST (11/19)
Length of Visible Light 11h 17m
Length of Day
10h 24m
Waning Gibbous, 51% of the Moon is Illuminated
Nov 19
Waning Gibbous
Nov 19
Last Quarter
Nov 26
New
Dec 4
First Quarter
Dec 11
Full

Hourly Weather History & Observations

Time (CST) Temp. Dew Point Humidity Pressure Visibility Wind Dir Wind Speed Gust Speed Precip Events Conditions
12:52 AM 50.0 °F 36.0 °F 59% 29.91 in 10.0 mi South 6.9 mph - N/A   Clear
1:52 AM 53.1 °F 37.0 °F 55% 29.90 in 10.0 mi SSW 4.6 mph - N/A   Clear
2:52 AM 52.0 °F 37.0 °F 57% 29.90 in 10.0 mi SSW 6.9 mph - N/A   Clear
3:52 AM 52.0 °F 37.0 °F 57% 29.91 in 10.0 mi SSW 6.9 mph - N/A   Clear
4:52 AM 51.1 °F 36.0 °F 56% 29.91 in 10.0 mi South 5.8 mph - N/A   Clear
5:52 AM 48.0 °F 37.0 °F 66% 29.92 in 10.0 mi SSE 6.9 mph - N/A   Clear
6:52 AM 50.0 °F 37.9 °F 63% 29.94 in 10.0 mi South 8.1 mph - N/A   Clear
7:52 AM 52.0 °F 39.0 °F 61% 29.96 in 10.0 mi South 4.6 mph - N/A   Clear
8:52 AM 57.9 °F 41.0 °F 53% 29.96 in 10.0 mi SSW 3.5 mph - N/A   Clear
9:52 AM 66.0 °F 42.1 °F 42% 29.96 in 10.0 mi SW 9.2 mph - N/A   Clear
10:52 AM 72.0 °F 42.1 °F 34% 29.94 in 10.0 mi SSW 12.7 mph - N/A   Clear
11:52 AM 73.9 °F 42.1 °F 32% 29.92 in 10.0 mi SSW 13.8 mph - N/A   Clear
12:52 PM 77.0 °F 39.0 °F 25% 29.88 in 10.0 mi South 11.5 mph - N/A   Clear
2:52 PM 80.1 °F 34.0 °F 19% 29.82 in 10.0 mi South 16.1 mph - N/A   Clear
3:52 PM 78.1 °F 37.9 °F 24% 29.81 in 10.0 mi South 16.1 mph 24.2 mph N/A   Clear
4:52 PM 77.0 °F 39.0 °F 25% 29.81 in 10.0 mi South 15.0 mph 23.0 mph N/A   Clear
5:52 PM 68.0 °F 39.0 °F 35% 29.82 in 10.0 mi SSE 9.2 mph - N/A   Clear
6:52 PM 64.9 °F 39.9 °F 40% 29.81 in 10.0 mi SSE 10.4 mph - N/A   Clear
7:52 PM 66.0 °F 43.0 °F 43% 29.82 in 10.0 mi SSE 12.7 mph - N/A   Clear
8:52 PM 64.9 °F 45.0 °F 48% 29.82 in 10.0 mi SSE 10.4 mph - N/A   Clear
9:52 PM 64.0 °F 45.0 °F 50% 29.82 in 10.0 mi South 12.7 mph - N/A   Clear
10:52 PM 64.9 °F 46.9 °F 52% 29.81 in 10.0 mi South 15.0 mph - N/A   Clear
11:52 PM 63.0 °F 48.9 °F 60% 29.81 in 10.0 mi South 16.1 mph 23.0 mph N/A   Clear